Regional Weather Roundup
Issued by NWS Upton, NY

Current Version | Previous Version | Graphics & Text | Print | Product List | Glossary Off
Versions: 1 2 3 4 5 6 7 8 9 10 11 12 13 14 15 16 17 18 19 20 21 22 23 24 25 26 27 28 29 30 31 32 33 34 35 36 37 38 39 40 41 42 43 44 45 46 47 48 49 50

000
ASUS41 KOKX 281805
RWROKX

REGIONAL WEATHER ROUNDUP
NATIONAL WEATHER SERVICE NEW YORK NY
100 PM EST WED JAN 28 2015

NOTE: "FAIR" INDICATES FEW OR NO CLOUDS BELOW 12,000 FEET WITH NO
SIGNIFICANT WEATHER AND/OR OBSTRUCTIONS TO VISIBILITY.

NYZ071-072-176-178-NJZ106-104-281900-
NEW YORK CITY METRO AREA


CITY           SKY/WX    TMP DP  RH WIND       PRES   REMARKS
CENTRAL PARK   SUNNY     30   7  37 NW14G21   30.07S WCI  19
LAGUARDIA APRT MOSUNNY   30  11  45 NW12      30.05F WCI  20
KENNEDY INTL   MOSUNNY   29   9  43 NW14      30.06F WCI  18
NEWARK/LIBERTY MOSUNNY   29  10  45 NW15      30.07S WCI  18
BRNX BOT. GARD   N/A    N/A N/A N/A NW8       30.06S
TETERBORO      SUNNY     29   8  41 NW13G20   30.06S WCI  19
$$

NYZ177-179-078>081-281900-
LONG ISLAND NEW YORK

CITY           SKY/WX    TMP DP  RH WIND       PRES   REMARKS
FARMINGDALE    SUNNY     28   9  44 N10       30.04S WCI  19
ISLIP          MOSUNNY   25  10  53 N20G33    30.01S WCI  11
SHIRLEY        MOSUNNY   24   9  52 N16G23    30.03S WCI  11
WESTHAMPTON    MOSUNNY   23  10  57 NW13G25   30.02S WCI  11
MONTAUK POINT    N/A     23   8  52 NW12      30.00R WCI  12
$$

NYZ052-065-067-281900-
HUDSON VALLEY

CITY           SKY/WX    TMP DP  RH WIND       PRES   REMARKS
WHITE PLAINS   SUNNY     27   8  44 NW18G25   30.01S WCI  14
NEWBURGH       SUNNY     28  12  50 NW7       30.05R WCI  21
MONTGOMERY     SUNNY     31   8  38 NW10G18   30.03S WCI  22
POUGHKEEPSIE   SUNNY     27   5  39 N12       30.06S WCI  17
ALBANY         MOSUNNY   19   0  43 NW12      30.13S WCI   7
$$

NJZ001-105-106-008-010-013-015-019>022-104-281900-
NEW JERSEY

CITY           SKY/WX    TMP DP  RH WIND       PRES   REMARKS
NEWARK/LIBERTY MOSUNNY   29  10  45 NW15      30.07S WCI  18
TETERBORO      SUNNY     29   8  41 NW13G20   30.06S WCI  19
CALDWELL       SUNNY     29   6  38 NW12      30.07S WCI  19
MORRISTOWN     SUNNY     30  10  43 N9G20     30.08S WCI  22
SOMERVILLE     SUNNY     31  10  41 NW13G25   30.07S WCI  21
SUSSEX         SUNNY     27   7  42 NW9       30.07S WCI  18
ANDOVER          N/A     28   7  41 N13G22    30.06F WCI  17
TRENTON        SUNNY     29   6  38 NW16G25   30.08F WCI  17
MILLVILLE      SUNNY     33   4  29 NW16G25   30.11F WCI  23
ATLANTIC CITY  SUNNY     31  10  41 NW18      30.08F WCI  19
WRIGHTSTOWN    SUNNY     29   9  43 NW18      30.06F WCI  16
TOMS RIVER     SUNNY     28  10  47 NW14G23   30.08S WCI  17
BELMAR         SUNNY     27   9  46 NW17      30.06S WCI  14
$$

PAZ047>061-062-071-281900-
EASTERN PENNSYLVANIA

CITY           SKY/WX    TMP DP  RH WIND       PRES   REMARKS
PHILADELPHIA   SUNNY     31   2  29 NW20G26   30.14S WCI  19
ALLENTOWN      SUNNY     29   4  34 NW18      30.11F WCI  16
SCRANTON       MIX PCPN  25   5  42 NW15      30.12F WCI  13
$$

CTZ002-004>006-009-010-012-RIZ004-006-007-MAZ004-011-015-281900-
SOUTHERN NEW ENGLAND
 IN CT

CITY           SKY/WX    TMP DP  RH WIND       PRES   REMARKS
BRADLEY INTL   PTSUNNY   23   7  50 N14G24    30.01R WCI  11
HARTFORD       PTSUNNY   23   8  52 N12       30.03R WCI  12
DANBURY        SUNNY     25   5  42 NW9G21    30.03S WCI  15
WTRBRY/OXFORD  MOSUNNY   19   3  49 N14       29.99R WCI   6
BRIDGEPORT     MOSUNNY   25   8  48 NW14      30.04S WCI  13
MERIDEN        PTSUNNY   22   7  52 NW13G23   30.02S WCI  10
NEW HAVEN      MOSUNNY   24   8  50 NW15G25   30.03R WCI  11
CHESTER        FAIR      23   9  54 NW14      29.98S WCI  11
GROTON         MOSUNNY   22   6  50 N13       29.99S WCI  10
WILLIMANTIC    PTSUNNY   23   7  50 N9        29.99R WCI  13

 IN RI

CITY           SKY/WX    TMP DP  RH WIND       PRES   REMARKS
PROVIDENCE     PTSUNNY   21   5  50 NW12      29.98R WCI   9
BLOCK ISLAND   MOSUNNY   21   7  53 NW13      29.96R WCI   9
WESTERLY       PTSUNNY   22   5  48 N13       29.99R WCI  10

 IN MA

CITY           SKY/WX    TMP DP  RH WIND       PRES   REMARKS
BOSTON         PTSUNNY   19   6  57 NW13      29.97R WCI   6
WORCESTER      PTSUNNY   18   6  59 N18G28    29.91R WCI   2
WESTFIELD      PTSUNNY   23   7  50 N13       30.00S WCI  11
PROVINCETOWN   CLOUDY    25  14  63 N16       29.93S WCI  12
NANTUCKET      MOSUNNY   24  16  71 N15       29.92R WCI  11
$$

ANZ330-335-338-340-345-350-353-355-281900-
COASTAL MARINE OBSERVATIONS


STATION/POSITION TIME  SKY/WX   TEMP    WIND        PRES    VSBY  WAVE
                                AIR SEA DIR/SP/G                  HT/PER
                 (UTC)          (F)     (DEG/KT/KT) (MB)    (MI)  (FT/S)
NY HARB ENTRANCE 1800            28 40  320/ 16/ 19 1017.3          3/13
4S FIRE IS       NOT AVBL
20S FIRE ISLAND  1700               42              1017.4          4/ 5
23SW MTP         1800                                 N/A           4/11
HUDSON CANYON    NOT AVBL
EXECUTION ROCKS  1700            31 34  310/ 12/ 16   N/A
WESTERN LI SOUND 1700            26     340/  6/ 10   N/A           1
CENTRAL LI SOUND 1700            23 35  320/ 10/ 16   N/A           2/ 3
EASTERN LI SOUND NOT AVBL
ROBBINS REEF     1800            27     320/ 15/ 19 1016.8
$$


>>>>>>>>>>>>>>>>>>>>>>>>>>>> KEY <<<<<<<<<<<<<<<<<<<<<<<<<<<
>                                                          <
>     SKY/WX - SKY CONDITION/PRESENT WEATHER               <
>     TMP    - TEMPERATURE IN FAHRENHEIT                   <
>     DP     - DEWPOINT IN FAHRENHEIT                      <
>     RH     - RELATIVE HUMIDITY IN PERCENT                <
>     WIND   - DIRECTION AND SPEED IN MPH                  <
>     PRES   - MEAN SEA LEVEL PRESSURE IN INCHES OF HG     <
>     WCI    - WIND CHILL INDEX                            <
>     VSB    - VISIBILITY IN MILES                         <
>     HX     - HEAT INDEX                                  <
>     TC     - TEMPERATURE IN CELSIUS                      <
>     VRB    - VARIABLE WIND DIRECTION                     <
>                                                          <
>>>>>>>>>>>>>>>>>>>>>>>>>>>> KEY <<<<<<<<<<<<<<<<<<<<<<<<<<<




USA.gov is the U.S. government's official web portal to all federal, state and local government web resources and services.